| time (UTC) | temp C | wind direction | speed KPH | gust KPH | rain 1hr cm | rain 24hr cm | rain mn cm | humidity % | barometer mb |
| 20260506104011 | 14 | 360 | 0.0 | 1.6 | 0.00 | 0.00 | 0.00 | 93 | 1015.1 |
| 20260506103510 | 14 | 360 | 0.0 | 3.2 | 0.00 | 0.00 | 0.00 | 93 | 1015.0 |
| 20260506103010 | 14 | 360 | 0.0 | 3.2 | 0.00 | 0.00 | 0.00 | 93 | 1014.9 |
| 20260506102511 | 14 | 360 | 0.0 | 0.0 | 0.00 | 0.00 | 0.00 | 93 | 1014.9 |
| 20260506102009 | 14 | 360 | 0.0 | 0.0 | 0.00 | 0.00 | 0.00 | 93 | 1014.9 |
| 20260506101510 | 14 | 360 | 0.0 | 0.0 | 0.00 | 0.00 | 0.00 | 93 | 1014.8 |
| 20260506101009 | 14 | 360 | 0.0 | 0.0 | 0.00 | 0.00 | 0.00 | 93 | 1014.8 |
| 20260506100511 | 14 | 360 | 0.0 | 0.0 | 0.00 | 0.00 | 0.00 | 93 | 1014.9 |
| 20260506100009 | 14 | 360 | 0.0 | 0.0 | 0.00 | 0.00 | 0.00 | 93 | 1014.7 |
| 20260506095511 | 14 | 360 | 0.0 | 0.0 | 0.00 | 0.00 | 0.00 | 92 | 1014.7 |
| 20260506095009 | 14 | 360 | 0.0 | 0.0 | 0.00 | 0.00 | 0.00 | 93 | 1014.7 |
| 20260506094509 | 14 | 360 | 0.0 | 0.0 | 0.00 | 0.00 | 0.00 | 93 | 1014.7 |
| 20260506094007 | 13 | 360 | 0.0 | 1.6 | 0.00 | 0.00 | 0.00 | 92 | 1014.5 |
| 20260506093510 | 13 | 360 | 0.0 | 1.6 | 0.00 | 0.00 | 0.00 | 92 | 1014.5 |
| 20260506093007 | 13 | 360 | 0.0 | 1.6 | 0.00 | 0.00 | 0.00 | 92 | 1014.7 |
| 20260506092506 | 13 | 360 | 0.0 | 3.2 | 0.00 | 0.00 | 0.00 | 93 | 1014.6 |
| 20260506092006 | 13 | 360 | 0.0 | 3.2 | 0.00 | 0.00 | 0.00 | 93 | 1014.7 |
| 20260506091505 | 13 | 360 | 0.0 | 0.0 | 0.00 | 0.00 | 0.00 | 92 | 1014.9 |
| 20260506091004 | 13 | 360 | 0.0 | 3.2 | 0.00 | 0.00 | 0.00 | 92 | 1014.7 |
| 20260506090509 | 13 | 360 | 0.0 | 3.2 | 0.00 | 0.00 | 0.00 | 92 | 1014.8 |
| 20260506090004 | 13 | 360 | 0.0 | 3.2 | 0.00 | 0.00 | 0.00 | 92 | 1014.7 |
| 20260506085508 | 13 | 360 | 0.0 | 0.0 | 0.00 | 0.00 | 0.00 | 92 | 1014.7 |
| 20260506085004 | 13 | 360 | 0.0 | 0.0 | 0.00 | 0.00 | 0.00 | 92 | 1014.8 |
| 20260506084506 | 13 | 360 | 0.0 | 0.0 | 0.00 | 0.00 | 0.00 | 91 | 1014.6 |
| 20260506084004 | 13 | 360 | 0.0 | 0.0 | 0.00 | 0.00 | 0.00 | 91 | 1014.7 |
| 20260506083503 | 13 | 360 | 0.0 | 0.0 | 0.00 | 0.00 | 0.00 | 91 | 1014.7 |
| 20260506083003 | 13 | 360 | 0.0 | 0.0 | 0.00 | 0.00 | 0.00 | 90 | 1014.9 |
| 20260506082503 | 13 | 360 | 0.0 | 1.6 | 0.00 | 0.00 | 0.00 | 90 | 1015.0 |
| 20260506082002 | 13 | 360 | 0.0 | 1.6 | 0.00 | 0.00 | 0.00 | 90 | 1015.0 |
| 20260506081501 | 13 | 360 | 0.0 | 0.0 | 0.00 | 0.00 | 0.00 | 90 | 1015.0 |
| 20260506081100 | 14 | 360 | 0.0 | 0.0 | 0.00 | 0.00 | 0.00 | 89 | 1015.0 |
| 20260506080600 | 14 | 360 | 0.0 | 1.6 | 0.00 | 0.00 | 0.00 | 89 | 1014.9 |
| 20260506080114 | 14 | 360 | 0.0 | 1.6 | 0.00 | 0.00 | 0.00 | 89 | 1015.1 |
| 20260506073057 | 15 | 360 | 0.0 | 3.2 | 0.00 | 0.00 | 0.00 | 88 | 1014.9 |
| 20260506072558 | 15 | 360 | 1.6 | 3.2 | 0.00 | 0.00 | 0.00 | 88 | 1014.8 |
| 20260506072056 | 15 | 360 | 0.0 | 3.2 | 0.00 | 0.00 | 0.00 | 88 | 1014.9 |
| 20260506071615 | 15 | 360 | 0.0 | 0.0 | 0.00 | 0.00 | 0.00 | 87 | 1014.9 |
| 20260506071054 | 15 | 360 | 0.0 | 1.6 | 0.00 | 0.00 | 0.00 | 87 | 1014.9 |
| 20260506070553 | 15 | 360 | 0.0 | 3.2 | 0.00 | 0.00 | 0.00 | 87 | 1014.7 |
| 20260506062049 | 15 | 360 | 1.6 | 6.4 | 0.00 | 0.00 | 0.00 | 85 | 1014.9 |
| 20260506061548 | 15 | 360 | 1.6 | 6.4 | 0.00 | 0.00 | 0.00 | 85 | 1015.1 |
| 20260506061048 | 15 | 360 | 1.6 | 4.8 | 0.00 | 0.00 | 0.00 | 84 | 1015.1 |
| 20260506060551 | 15 | 360 | 1.6 | 6.4 | 0.00 | 0.00 | 0.00 | 85 | 1015.2 |
| 20260506051041 | 16 | 360 | 0.0 | 4.8 | 0.00 | 0.00 | 0.00 | 83 | 1016.0 |
| 20260506050540 | 16 | 360 | 0.0 | 4.8 | 0.00 | 0.00 | 0.00 | 82 | 1015.8 |
| 20260506045038 | 16 | 360 | 1.6 | 8.0 | 0.00 | 0.00 | 0.00 | 81 | 1016.0 |
| 20260506044539 | 16 | 360 | 0.0 | 6.4 | 0.00 | 0.00 | 0.00 | 81 | 1016.1 |
| 20260506044036 | 16 | 360 | 0.0 | 4.8 | 0.00 | 0.00 | 0.00 | 80 | 1016.1 |
| 20260506043535 | 16 | 360 | 0.0 | 4.8 | 0.00 | 0.00 | 0.00 | 80 | 1016.2 |
| 20260506043044 | 16 | 360 | 1.6 | 4.8 | 0.00 | 0.00 | 0.00 | 80 | 1016.3 |
| 20260506042534 | 16 | 360 | 1.6 | 4.8 | 0.00 | 0.00 | 0.00 | 79 | 1016.3 |
| 20260506042033 | 16 | 360 | 0.0 | 4.8 | 0.00 | 0.00 | 0.00 | 78 | 1016.3 |
| 20260506041536 | 17 | 360 | 1.6 | 4.8 | 0.00 | 0.00 | 0.00 | 78 | 1016.3 |
| 20260506041033 | 17 | 360 | 1.6 | 8.0 | 0.00 | 0.00 | 0.00 | 78 | 1016.2 |
| 20260506040530 | 17 | 360 | 3.2 | 9.7 | 0.00 | 0.00 | 0.00 | 77 | 1016.3 |
| 20260506040042 | 17 | 360 | 3.2 | 9.7 | 0.00 | 0.00 | 0.00 | 77 | 1016.3 |
| 20260506035529 | 17 | 360 | 3.2 | 8.0 | 0.00 | 0.00 | 0.00 | 76 | 1016.3 |
| 20260506035029 | 17 | 360 | 3.2 | 8.0 | 0.00 | 0.00 | 0.00 | 76 | 1016.4 |
| 20260506034529 | 17 | 360 | 1.6 | 6.4 | 0.00 | 0.00 | 0.00 | 76 | 1016.5 |
| 20260506034028 | 17 | 360 | 1.6 | 6.4 | 0.00 | 0.00 | 0.00 | 75 | 1016.4 |
| 20260506033528 | 17 | 360 | 3.2 | 9.7 | 0.00 | 0.00 | 0.00 | 75 | 1016.4 |
| 20260506033029 | 17 | 360 | 3.2 | 9.7 | 0.00 | 0.00 | 0.00 | 75 | 1016.4 |
| 20260506032528 | 17 | 360 | 3.2 | 12.9 | 0.00 | 0.00 | 0.00 | 75 | 1016.4 |
| 20260506032028 | 17 | 360 | 3.2 | 8.0 | 0.00 | 0.00 | 0.00 | 74 | 1016.5 |
| 20260506031528 | 17 | 360 | 3.2 | 9.7 | 0.00 | 0.00 | 0.00 | 74 | 1016.5 |
| 20260506031028 | 17 | 360 | 4.8 | 9.7 | 0.00 | 0.00 | 0.00 | 74 | 1016.5 |
| 20260506030527 | 17 | 360 | 3.2 | 12.9 | 0.00 | 0.00 | 0.00 | 74 | 1016.5 |
| 20260506030028 | 17 | 360 | 3.2 | 9.7 | 0.00 | 0.00 | 0.00 | 74 | 1016.5 |
| 20260506025527 | 18 | 360 | 1.6 | 22.5 | 0.00 | 0.00 | 0.00 | 74 | 1016.4 |
| 20260506025027 | 18 | 360 | 4.8 | 22.5 | 0.00 | 0.00 | 0.00 | 73 | 1016.3 |
| 20260506024535 | 18 | 360 | 1.6 | 17.7 | 0.00 | 0.00 | 0.00 | 73 | 1016.3 |
| 20260506024027 | 18 | 360 | 3.2 | 17.7 | 0.00 | 0.00 | 0.00 | 73 | 1016.3 |
| 20260506023529 | 18 | 360 | 6.4 | 9.7 | 0.00 | 0.00 | 0.00 | 73 | 1016.3 |
| 20260506023026 | 18 | 360 | 3.2 | 12.9 | 0.00 | 0.00 | 0.00 | 73 | 1016.3 |
| 20260506022527 | 18 | 360 | 3.2 | 9.7 | 0.00 | 0.00 | 0.00 | 73 | 1016.3 |
| 20260506022026 | 18 | 360 | 3.2 | 9.7 | 0.00 | 0.00 | 0.00 | 72 | 1016.3 |
| 20260506021541 | 18 | 360 | 1.6 | 9.7 | 0.00 | 0.00 | 0.00 | 72 | 1016.3 |
| 20260506021026 | 18 | 360 | 3.2 | 9.7 | 0.00 | 0.00 | 0.00 | 72 | 1016.3 |
| 20260506020528 | 18 | 360 | 4.8 | 8.0 | 0.00 | 0.00 | 0.00 | 72 | 1016.2 |
| 20260506020025 | 18 | 360 | 3.2 | 12.9 | 0.00 | 0.00 | 0.00 | 72 | 1016.1 |
| 20260506015525 | 18 | 197 | 3.2 | 17.7 | 0.00 | 0.00 | 0.00 | 72 | 1016.1 |
| 20260506015025 | 18 | 360 | 6.4 | 17.7 | 0.00 | 0.00 | 0.00 | 72 | 1016.0 |
| 20260506014526 | 18 | 360 | 6.4 | 16.1 | 0.00 | 0.00 | 0.00 | 72 | 1016.1 |
| 20260506014024 | 19 | 360 | 6.4 | 16.1 | 0.00 | 0.00 | 0.00 | 72 | 1015.9 |
| 20260506013526 | 19 | 360 | 4.8 | 16.1 | 0.00 | 0.00 | 0.00 | 72 | 1015.9 |
| 20260506013025 | 19 | 360 | 4.8 | 19.3 | 0.00 | 0.00 | 0.00 | 72 | 1015.8 |
| 20260506012524 | 19 | 360 | 6.4 | 19.3 | 0.00 | 0.00 | 0.00 | 72 | 1015.9 |
| 20260506012025 | 19 | 360 | 6.4 | 17.7 | 0.00 | 0.00 | 0.00 | 72 | 1015.8 |
| 20260506011527 | 19 | 360 | 3.2 | 12.9 | 0.00 | 0.00 | 0.00 | 71 | 1015.8 |
| 20260506011025 | 20 | 360 | 3.2 | 14.5 | 0.00 | 0.00 | 0.00 | 71 | 1015.7 |
| 20260506010523 | 20 | 360 | 4.8 | 14.5 | 0.00 | 0.00 | 0.00 | 70 | 1015.7 |
| 20260506010023 | 20 | 360 | 4.8 | 17.7 | 0.00 | 0.00 | 0.00 | 70 | 1015.6 |
| 20260506005523 | 20 | 360 | 6.4 | 17.7 | 0.00 | 0.00 | 0.00 | 70 | 1015.5 |
| 20260506005026 | 20 | 208 | 4.8 | 17.7 | 0.00 | 0.00 | 0.00 | 70 | 1015.4 |
| 20260506004522 | 20 | 165 | 6.4 | 12.9 | 0.00 | 0.00 | 0.00 | 69 | 1015.3 |
| 20260506004022 | 20 | 360 | 4.8 | 14.5 | 0.00 | 0.00 | 0.00 | 69 | 1015.3 |
| 20260506003524 | 20 | 360 | 6.4 | 14.5 | 0.00 | 0.00 | 0.00 | 69 | 1015.3 |
| 20260506003023 | 20 | 360 | 3.2 | 14.5 | 0.00 | 0.00 | 0.00 | 69 | 1015.1 |
| 20260506002526 | 20 | 360 | 4.8 | 9.7 | 0.00 | 0.00 | 0.00 | 68 | 1015.1 |
| 20260506002022 | 20 | 360 | 3.2 | 9.7 | 0.00 | 0.00 | 0.00 | 68 | 1015.0 |
| 20260506001522 | 21 | 360 | 4.8 | 19.3 | 0.00 | 0.00 | 0.00 | 67 | 1014.9 |
| 20260506001022 | 21 | 360 | 4.8 | 14.5 | 0.00 | 0.00 | 0.00 | 67 | 1015.0 |
| 20260506000521 | 21 | 360 | 4.8 | 14.5 | 0.00 | 0.00 | 0.00 | 66 | 1014.9 |
| 20260506000022 | 21 | 167 | 3.2 | 16.1 | 0.00 | 0.00 | 0.00 | 66 | 1014.8 |
| 20260505235521 | 21 | 158 | 4.8 | 17.7 | 0.00 | 0.00 | 0.00 | 65 | 1014.8 |
| 20260505235021 | 21 | 183 | 3.2 | 14.5 | 0.00 | 0.00 | 0.00 | 65 | 1014.9 |
| 20260505234521 | 21 | 147 | 4.8 | 14.5 | 0.00 | 0.00 | 0.00 | 65 | 1014.9 |
| 20260505234020 | 22 | 156 | 3.2 | 11.3 | 0.00 | 0.00 | 0.00 | 64 | 1014.9 |
| 20260505233622 | 22 | 161 | 3.2 | 11.3 | 0.00 | 0.00 | 0.00 | 64 | 1014.9 |
| 20260505233019 | 22 | 165 | 4.8 | 22.5 | 0.00 | 0.00 | 0.00 | 63 | 1015.0 |
| 20260505232519 | 22 | 167 | 6.4 | 22.5 | 0.00 | 0.00 | 0.00 | 62 | 1014.8 |
| 20260505232019 | 22 | 189 | 6.4 | 14.5 | 0.00 | 0.00 | 0.00 | 62 | 1014.7 |
| 20260505231525 | 23 | 150 | 3.2 | 17.7 | 0.00 | 0.00 | 0.00 | 60 | 1014.7 |
| 20260505231018 | 23 | 186 | 9.7 | 20.9 | 0.00 | 0.00 | 0.00 | 60 | 1014.6 |
| 20260505230518 | 23 | 136 | 9.7 | 20.9 | 0.00 | 0.00 | 0.00 | 59 | 1014.6 |
| 20260505230019 | 23 | 196 | 4.8 | 16.1 | 0.00 | 0.00 | 0.00 | 58 | 1014.7 |
| 20260505225518 | 23 | 169 | 6.4 | 17.7 | 0.00 | 0.00 | 0.00 | 57 | 1014.6 |
| 20260505225018 | 23 | 262 | 8.0 | 16.1 | 0.00 | 0.00 | 0.00 | 58 | 1014.5 |
| 20260505224526 | 24 | 186 | 8.0 | 17.7 | 0.00 | 0.00 | 0.00 | 56 | 1014.5 |
| 20260505224021 | 24 | 167 | 4.8 | 16.1 | 0.00 | 0.00 | 0.00 | 56 | 1014.6 |
| 20260505223517 | 24 | 171 | 8.0 | 19.3 | 0.00 | 0.00 | 0.00 | 55 | 1014.7 |
| 20260505223018 | 25 | 117 | 4.8 | 19.3 | 0.00 | 0.00 | 0.00 | 54 | 1014.7 |
| 20260505222517 | 25 | 166 | 4.8 | 14.5 | 0.00 | 0.00 | 0.00 | 54 | 1014.5 |
| 20260505222017 | 25 | 176 | 4.8 | 14.5 | 0.00 | 0.00 | 0.00 | 54 | 1014.4 |
| 20260505221516 | 25 | 142 | 4.8 | 12.9 | 0.00 | 0.00 | 0.00 | 54 | 1014.4 |
| 20260505221016 | 25 | 151 | 6.4 | 14.5 | 0.00 | 0.00 | 0.00 | 53 | 1014.4 |
| 20260505220515 | 25 | 135 | 4.8 | 11.3 | 0.00 | 0.00 | 0.00 | 53 | 1014.5 |
| 20260505220015 | 25 | 178 | 4.8 | 22.5 | 0.00 | 0.00 | 0.00 | 53 | 1014.4 |
| 20260505215514 | 25 | 128 | 4.8 | 22.5 | 0.00 | 0.00 | 0.00 | 53 | 1014.5 |
| 20260505215015 | 25 | 163 | 9.7 | 17.7 | 0.00 | 0.00 | 0.00 | 52 | 1014.5 |
| 20260505214515 | 25 | 153 | 8.0 | 16.1 | 0.00 | 0.00 | 0.00 | 53 | 1014.6 |
| 20260505214015 | 25 | 142 | 3.2 | 25.7 | 0.00 | 0.00 | 0.00 | 53 | 1014.5 |
| 20260505213514 | 25 | 158 | 8.0 | 27.4 | 0.00 | 0.00 | 0.00 | 53 | 1014.5 |
| 20260505213018 | 26 | 157 | 9.7 | 27.4 | 0.00 | 0.00 | 0.00 | 51 | 1014.4 |
| 20260505212518 | 26 | 209 | 4.8 | 22.5 | 0.00 | 0.00 | 0.00 | 51 | 1014.6 |
| 20260505212015 | 26 | 128 | 6.4 | 22.5 | 0.00 | 0.00 | 0.00 | 52 | 1014.5 |
| 20260505211531 | 26 | 150 | 6.4 | 19.3 | 0.00 | 0.00 | 0.00 | 51 | 1014.6 |
| 20260505211013 | 26 | 211 | 6.4 | 19.3 | 0.00 | 0.00 | 0.00 | 51 | 1014.4 |
| 20260505210516 | 26 | 152 | 8.0 | 16.1 | 0.00 | 0.00 | 0.00 | 51 | 1014.4 |
| 20260505210014 | 26 | 203 | 6.4 | 17.7 | 0.00 | 0.00 | 0.00 | 50 | 1014.5 |
| 20260505205517 | 26 | 115 | 4.8 | 12.9 | 0.00 | 0.00 | 0.00 | 49 | 1014.5 |
| 20260505205012 | 26 | 149 | 4.8 | 14.5 | 0.00 | 0.00 | 0.00 | 50 | 1014.3 |
| 20260505204512 | 26 | 194 | 4.8 | 14.5 | 0.00 | 0.00 | 0.00 | 51 | 1014.4 |
| 20260505204012 | 26 | 178 | 6.4 | 16.1 | 0.00 | 0.00 | 0.00 | 49 | 1014.3 |
| 20260505203511 | 26 | 148 | 3.2 | 19.3 | 0.00 | 0.00 | 0.00 | 49 | 1014.3 |
| 20260505203011 | 26 | 192 | 3.2 | 14.5 | 0.00 | 0.00 | 0.00 | 47 | 1014.4 |
| 20260505202511 | 26 | 179 | 3.2 | 19.3 | 0.00 | 0.00 | 0.00 | 48 | 1014.6 |
| 20260505202011 | 26 | 249 | 9.7 | 20.9 | 0.00 | 0.00 | 0.00 | 48 | 1014.6 |
| 20260505201510 | 26 | 193 | 6.4 | 20.9 | 0.00 | 0.00 | 0.00 | 50 | 1014.6 |
| 20260505201011 | 26 | 173 | 4.8 | 12.9 | 0.00 | 0.00 | 0.00 | 50 | 1014.8 |
| 20260505200508 | 26 | 197 | 6.4 | 16.1 | 0.00 | 0.00 | 0.00 | 49 | 1014.9 |
| 20260505200008 | 26 | 191 | 9.7 | 16.1 | 0.00 | 0.00 | 0.00 | 47 | 1014.9 |
| 20260505195508 | 26 | 178 | 4.8 | 12.9 | 0.00 | 0.00 | 0.00 | 47 | 1014.9 |
| 20260505195008 | 26 | 180 | 4.8 | 14.5 | 0.00 | 0.00 | 0.00 | 49 | 1015.0 |
| 20260505194508 | 26 | 192 | 4.8 | 16.1 | 0.00 | 0.00 | 0.00 | 47 | 1015.2 |
| 20260505194006 | 26 | 234 | 4.8 | 19.3 | 0.00 | 0.00 | 0.00 | 47 | 1015.1 |
| 20260505193506 | 27 | 183 | 8.0 | 22.5 | 0.00 | 0.00 | 0.00 | 48 | 1015.2 |
| 20260505193006 | 27 | 169 | 6.4 | 22.5 | 0.00 | 0.00 | 0.00 | 46 | 1015.4 |
| 20260505192504 | 27 | 259 | 4.8 | 24.1 | 0.00 | 0.00 | 0.00 | 48 | 1015.5 |
| 20260505192004 | 26 | 190 | 6.4 | 14.5 | 0.00 | 0.00 | 0.00 | 47 | 1015.5 |
| 20260505191503 | 26 | 157 | 3.2 | 24.1 | 0.00 | 0.00 | 0.00 | 46 | 1015.7 |
| 20260505191002 | 27 | 342 | 6.4 | 24.1 | 0.00 | 0.00 | 0.00 | 47 | 1015.8 |
| 20260505190502 | 26 | 216 | 4.8 | 17.7 | 0.00 | 0.00 | 0.00 | 47 | 1015.8 |
| 20260505190008 | 27 | 304 | 6.4 | 16.1 | 0.00 | 0.00 | 0.00 | 46 | 1016.0 |
| 20260505185502 | 27 | 144 | 8.0 | 16.1 | 0.00 | 0.00 | 0.00 | 46 | 1016.1 |
| 20260505185002 | 27 | 231 | 8.0 | 17.7 | 0.00 | 0.00 | 0.00 | 47 | 1016.1 |
| 20260505184501 | 27 | 114 | 3.2 | 16.1 | 0.00 | 0.00 | 0.00 | 49 | 1016.0 |
| 20260505184001 | 27 | 219 | 6.4 | 16.1 | 0.00 | 0.00 | 0.00 | 47 | 1016.3 |
| 20260505183501 | 27 | 159 | 6.4 | 17.7 | 0.00 | 0.00 | 0.00 | 48 | 1016.2 |
| 20260505183001 | 27 | 144 | 6.4 | 17.7 | 0.00 | 0.00 | 0.00 | 48 | 1016.2 |
| 20260505182605 | 27 | 100 | 6.4 | 14.5 | 0.00 | 0.00 | 0.00 | 48 | 1016.2 |
| 20260505182103 | 27 | 74 | 3.2 | 17.7 | 0.00 | 0.00 | 0.00 | 50 | 1016.2 |
| 20260505181600 | 26 | 94 | 6.4 | 17.7 | 0.00 | 0.00 | 0.00 | 48 | 1016.2 |
| 20260505181059 | 27 | 217 | 4.8 | 14.5 | 0.00 | 0.00 | 0.00 | 48 | 1016.3 |
| 20260505180558 | 27 | 159 | 1.6 | 11.3 | 0.00 | 0.00 | 0.00 | 49 | 1016.4 |
| 20260505180104 | 26 | 182 | 4.8 | 22.5 | 0.00 | 0.00 | 0.00 | 48 | 1016.5 |
| 20260505175557 | 26 | 238 | 8.0 | 22.5 | 0.00 | 0.00 | 0.00 | 49 | 1016.4 |
| 20260505175059 | 26 | 153 | 8.0 | 19.3 | 0.00 | 0.00 | 0.00 | 50 | 1016.4 |
| 20260505174556 | 26 | 146 | 1.6 | 16.1 | 0.00 | 0.00 | 0.00 | 51 | 1016.4 |
| 20260505174056 | 26 | 182 | 4.8 | 16.1 | 0.00 | 0.00 | 0.00 | 48 | 1016.6 |
| 20260505173558 | 26 | 170 | 4.8 | 14.5 | 0.00 | 0.00 | 0.00 | 51 | 1016.5 |
| 20260505173055 | 26 | 189 | 6.4 | 19.3 | 0.00 | 0.00 | 0.00 | 49 | 1016.7 |
| 20260505172558 | 26 | 160 | 6.4 | 19.3 | 0.00 | 0.00 | 0.00 | 52 | 1016.6 |
| 20260505172054 | 26 | 223 | 4.8 | 14.5 | 0.00 | 0.00 | 0.00 | 51 | 1016.6 |
| 20260505171557 | 26 | 177 | 6.4 | 16.1 | 0.00 | 0.00 | 0.00 | 49 | 1016.7 |
| 20260505171054 | 26 | 135 | 3.2 | 12.9 | 0.00 | 0.00 | 0.00 | 51 | 1016.6 |
| 20260505170553 | 26 | 230 | 1.6 | 16.1 | 0.00 | 0.00 | 0.00 | 52 | 1016.6 |
| 20260505170051 | 26 | 189 | 8.0 | 17.7 | 0.00 | 0.00 | 0.00 | 52 | 1016.8 |
| 20260505165551 | 25 | 179 | 6.4 | 17.7 | 0.00 | 0.00 | 0.00 | 50 | 1016.8 |
| 20260505165051 | 25 | 176 | 4.8 | 16.1 | 0.00 | 0.00 | 0.00 | 49 | 1016.9 |
| 20260505164651 | 25 | 259 | 4.8 | 16.1 | 0.00 | 0.00 | 0.00 | 53 | 1016.9 |
| 20260505164053 | 25 | 250 | 4.8 | 16.1 | 0.00 | 0.00 | 0.00 | 53 | 1017.1 |
| 20260505163552 | 25 | 165 | 1.6 | 11.3 | 0.00 | 0.00 | 0.00 | 55 | 1017.1 |
| 20260505163048 | 25 | 194 | 3.2 | 16.1 | 0.00 | 0.00 | 0.00 | 54 | 1017.1 |
| 20260505162550 | 25 | 246 | 8.0 | 19.3 | 0.00 | 0.00 | 0.00 | 53 | 1017.2 |
| 20260505162048 | 25 | 171 | 8.0 | 17.7 | 0.00 | 0.00 | 0.00 | 54 | 1017.2 |
| 20260505161547 | 25 | 269 | 8.0 | 17.7 | 0.00 | 0.00 | 0.00 | 55 | 1017.4 |
| 20260505161046 | 25 | 134 | 4.8 | 16.1 | 0.00 | 0.00 | 0.00 | 57 | 1017.4 |
| 20260505160548 | 25 | 167 | 6.4 | 16.1 | 0.00 | 0.00 | 0.00 | 55 | 1017.5 |
| 20260505153045 | 23 | 322 | 1.6 | 22.5 | 0.00 | 0.00 | 0.00 | 59 | 1017.6 |
| 20260505152539 | 23 | 223 | 9.7 | 22.5 | 0.00 | 0.00 | 0.00 | 58 | 1017.5 |
| 20260505152040 | 23 | 196 | 6.4 | 16.1 | 0.00 | 0.00 | 0.00 | 58 | 1017.7 |
| 20260505151544 | 23 | 117 | 4.8 | 16.1 | 0.00 | 0.00 | 0.00 | 61 | 1017.7 |
| 20260505151036 | 23 | 237 | 4.8 | 20.9 | 0.00 | 0.00 | 0.00 | 61 | 1017.6 |
| 20260505150536 | 23 | 158 | 4.8 | 20.9 | 0.00 | 0.00 | 0.00 | 63 | 1017.6 |
| 20260505140527 | 22 | 260 | 3.2 | 16.1 | 0.00 | 0.00 | 0.00 | 67 | 1017.5 |
| 20260505125006 | 18 | 179 | 1.6 | 9.7 | 0.00 | 0.00 | 0.00 | 76 | 1017.8 |
| 20260505124511 | 18 | 221 | 3.2 | 12.9 | 0.00 | 0.00 | 0.00 | 77 | 1017.8 |
| 20260505124003 | 17 | 177 | 1.6 | 12.9 | 0.00 | 0.00 | 0.00 | 79 | 1017.9 |
| 20260505123504 | 17 | 219 | 1.6 | 12.9 | 0.00 | 0.00 | 0.00 | 79 | 1017.8 |
| 20260505123001 | 17 | 236 | 1.6 | 9.7 | 0.00 | 0.00 | 0.00 | 81 | 1017.7 |
| 20260505122601 | 16 | 189 | 1.6 | 8.0 | 0.00 | 0.00 | 0.00 | 83 | 1017.7 |
| 20260505122059 | 16 | 173 | 1.6 | 6.4 | 0.00 | 0.00 | 0.00 | 83 | 1017.7 |
| 20260505121601 | 16 | 162 | 1.6 | 4.8 | 0.00 | 0.00 | 0.00 | 84 | 1017.7 |
| 20260505121058 | 15 | 157 | 1.6 | 9.7 | 0.00 | 0.00 | 0.00 | 84 | 1017.7 |
| 20260505120558 | 15 | 170 | 3.2 | 9.7 | 0.00 | 0.00 | 0.00 | 85 | 1017.7 |
| 20260505120112 | 15 | 210 | 0.0 | 8.0 | 0.00 | 0.00 | 0.00 | 87 | 1017.6 |
| 20260505115557 | 14 | 168 | 1.6 | 4.8 | 0.00 | 0.00 | 0.00 | 88 | 1017.6 |
| 20260505115056 | 14 | 165 | 0.0 | 3.2 | 0.00 | 0.00 | 0.00 | 89 | 1017.6 |
| 20260505114558 | 13 | 161 | 0.0 | 4.8 | 0.00 | 0.00 | 0.00 | 90 | 1017.5 |
| 20260505114056 | 13 | 360 | 0.0 | 4.8 | 0.00 | 0.00 | 0.00 | 91 | 1017.5 |
| 20260505113654 | 13 | 171 | 0.0 | 3.2 | 0.00 | 0.00 | 0.00 | 92 | 1017.4 |
| 20260505113103 | 12 | 171 | 0.0 | 3.2 | 0.00 | 0.00 | 0.00 | 93 | 1017.3 |
| 20260505112554 | 12 | 360 | 0.0 | 0.0 | 0.00 | 0.00 | 0.00 | 93 | 1017.3 |
| 20260505112054 | 12 | 360 | 0.0 | 0.0 | 0.00 | 0.00 | 0.00 | 93 | 1017.3 |
| 20260505111554 | 11 | 360 | 0.0 | 0.0 | 0.00 | 0.00 | 0.00 | 93 | 1017.3 |
| 20260505111053 | 11 | 360 | 0.0 | 0.0 | 0.00 | 0.00 | 0.00 | 93 | 1017.2 |
| 20260505110552 | 11 | 360 | 0.0 | 0.0 | 0.00 | 0.00 | 0.00 | 93 | 1017.2 |